{"data":{"norad_id":67024,"epoch":"2026-05-25T01:02:37.944672Z","epoch_age_seconds":71263,"freshness":"FRESH","line1":"1 67024U 25293X   26145.04349473  .00007447  00000+0  63130-3 0  9999","line2":"2 67024  70.0010 261.9856 0003189 265.1233  94.9562 14.98327207 26320","mean_motion":14.98327207,"eccentricity":0.0003189,"inclination_deg":70.001,"raan_deg":261.9856,"arg_perigee_deg":265.1233,"mean_anomaly_deg":94.9562,"bstar":0.0006313,"rev_number":2632,"period_min":96.107178276714,"perigee_km":569.84810881263,"apogee_km":574.28094734724,"semimajor_km":6950.2015280799,"source":"CELESTRAK","updated_at":"2026-05-25T13:38:21.434093Z"}}